"Time","Temp","Dewpoint","Humidity","Pressure","Direction","Speed","Gust","Precip","PrecipRate"
"00:04:57","26.8","20.1","75.6","30.57","203","0","0","0.00","0.00"
"00:09:58","26.6","20.3","76.9","30.57","203","0","0","0.00","0.00"
"00:14:59","26.4","20.2","77","30.57","204","0","0","0.00","0.00"
"00:19:57","26.3","20.1","77","30.56","204","0","0","0.00","0.00"
"00:24:56","26.2","20","77","30.56","204","0","0","0.00","0.00"
"00:29:56","26","19.9","77.3","30.56","204","0","0","0.00","0.00"
"00:34:58","26","19.9","77.5","30.55","203","0","0","0.00","0.00"
"00:39:57","26","19.8","77.1","30.55","203","0","0","0.00","0.00"
"00:44:56","26","19.8","77","30.56","204","0","0","0.00","0.00"
"00:49:57","26.1","19.9","77.1","30.56","204","0","0","0.00","0.00"
"00:54:56","26.1","20.2","78","30.56","204","1","2.4","0.00","0.00"
"00:59:58","26.2","20.3","77.7","30.56","204","0.6","1.2","0.00","0.00"
"01:04:56","26.3","20.1","77.1","30.56","204","0","1.2","0.00","0.00"
"01:09:56","26.2","20.3","78","30.56","204","0","0","0.00","0.00"
"01:14:56","26.1","20.2","78","30.56","204","0","0","0.00","0.00"
"01:19:57","25.9","20","78","30.55","204","0","0","0.00","0.00"
"01:24:57","25.8","19.9","78","30.55","204","0","0","0.00","0.00"
"01:29:59","25.6","19.9","78.5","30.55","204","0","0","0.00","0.00"
"01:34:57","25.7","19.8","78.2","30.55","204","0","0","0.00","0.00"
"01:39:56","25.7","19.8","78.1","30.55","204","0","0","0.00","0.00"
"01:44:59","25.7","20.1","79","30.55","204","0","0","0.00","0.00"
"01:49:57","25.7","20.1","79","30.55","204","0","0","0.00","0.00"
"01:54:59","25.6","19.9","78.5","30.55","204","0","0","0.00","0.00"
"01:59:57","25.6","20","79","30.55","204","0","0","0.00","0.00"
"02:04:59","25.5","19.9","79","30.55","204","0","0","0.00","0.00"
"02:09:59","25.5","19.9","79.1","30.55","204","0","0","0.00","0.00"
"02:14:59","25.5","20.2","80","30.56","204","0","0","0.00","0.00"
"02:19:56","25.4","20.1","80","30.56","204","0","0","0.00","0.00"
"02:24:59","25.3","20","80","30.56","204","0","0","0.00","0.00"
"02:29:58","25.2","19.9","80","30.56","204","0","0","0.00","0.00"
"02:34:56","25.1","19.8","80","30.56","204","0","0","0.00","0.00"
"02:39:59","25.1","19.8","80","30.56","204","0","0","0.00","0.00"
"02:44:58","24.9","19.8","80.6","30.56","204","0","0","0.00","0.00"
"02:49:59","24.9","19.9","81","30.56","204","0","0","0.00","0.00"
"02:54:58","25","20","81.2","30.56","204","0","0","0.00","0.00"
"02:59:55","25","20.3","82","30.56","204","0","0","0.00","0.00"
"03:04:58","24.9","20.2","82","30.55","204","0","0","0.00","0.00"
"03:09:57","24.9","20.2","82","30.55","204","0","0","0.00","0.00"
"03:14:57","24.8","20.2","82.3","30.55","204","0","0","0.00","0.00"
"03:19:59","24.8","20.3","82.8","30.55","204","0","0","0.00","0.00"
"03:24:57","24.7","20.3","83","30.55","204","0","0","0.00","0.00"
"03:29:59","24.7","20.3","83","30.55","204","0","0","0.00","0.00"
"03:34:57","24.7","20.3","83","30.55","204","0","0","0.00","0.00"
"03:39:56","24.7","20.3","83","30.55","204","0","0","0.00","0.00"
"03:44:58","24.6","20.2","83","30.55","204","0","0","0.00","0.00"
"03:49:59","24.6","20.2","83","30.55","204","0","0","0.00","0.00"
"03:54:57","24.5","20.1","83","30.55","204","0","0","0.00","0.00"
"03:59:58","24.4","20","83","30.55","204","0","0","0.00","0.00"
"04:04:59","24.4","20","83","30.55","204","0","0","0.00","0.00"
"04:09:59","24.4","20.1","83.2","30.55","204","0","0","0.00","0.00"
"04:14:59","24.3","20.2","84","30.55","204","0","0","0.00","0.00"
"04:19:58","24.3","20.2","84","30.55","204","0","0","0.00","0.00"
"04:24:56","24.2","20.1","84","30.55","204","0","0","0.00","0.00"
"04:29:57","24.3","20.2","84","30.55","204","0","0","0.00","0.00"
"04:34:59","24.3","20.2","84","30.55","204","0","0","0.00","0.00"
"04:39:58","24.4","20.3","84","30.55","204","0","0","0.00","0.00"
"04:44:59","24.3","20.2","84","30.55","204","0","0","0.00","0.00"
"04:49:57","24.2","20.1","84","30.55","204","0","0","0.00","0.00"
"04:54:56","24.1","20","84.1","30.55","204","0","0","0.00","0.00"
"04:59:57","24","19.9","84.1","30.55","204","0","0","0.00","0.00"
"05:04:58","23.9","19.9","84.4","30.55","204","0","0","0.00","0.00"
"05:09:58","23.8","19.9","85","30.55","204","0","0","0.00","0.00"
"05:14:57","23.8","19.9","85","30.55","204","0","0","0.00","0.00"
"05:19:58","23.8","19.9","85","30.54","204","0","0","0.00","0.00"
"05:24:59","23.7","20","85.5","30.54","204","0","0","0.00","0.00"
"05:29:56","23.6","20","86","30.54","204","0","0","0.00","0.00"
"05:34:57","23.6","20","86","30.54","204","0","0","0.00","0.00"
"05:39:56","23.6","20","86","30.54","204","0","0","0.00","0.00"
"05:44:57","23.5","19.9","86","30.55","204","0","0","0.00","0.00"
"05:49:58","23.5","19.9","86","30.55","204","0","0","0.00","0.00"
"05:54:57","23.4","19.8","86","30.55","204","0","0","0.00","0.00"
"05:59:56","23.3","19.7","86","30.55","204","0","0","0.00","0.00"
"06:04:57","23.3","19.7","86","30.55","204","0","0","0.00","0.00"
"06:09:57","23.4","20","86.7","30.55","204","0","0","0.00","0.00"
"06:14:56","23.4","19.8","86.1","30.55","204","0","0","0.00","0.00"
"06:19:57","23.4","19.8","86.2","30.55","204","0","0","0.00","0.00"
"06:24:58","23.3","19.8","86.2","30.55","204","0","0","0.00","0.00"
"06:29:58","23.2","19.7","86.3","30.55","204","0","0","0.00","0.00"
"06:34:56","23.2","19.9","87","30.55","204","0","0","0.00","0.00"
"06:39:58","23.2","19.9","87","30.55","204","0","0","0.00","0.00"
"06:44:59","23.1","19.8","87","30.55","204","0","0","0.00","0.00"
"06:49:56","23.1","19.8","87","30.55","204","0","0","0.00","0.00"
"06:54:58","23.1","19.8","87","30.55","204","0","0","0.00","0.00"
"06:59:59","23.1","19.8","87","30.55","204","0","0","0.00","0.00"
"07:04:56","23.1","19.8","87","30.55","204","0","0","0.00","0.00"
"07:09:56","23","19.7","87","30.55","204","0","0","0.00","0.00"
"07:14:59","23","19.7","87","30.56","204","0","0","0.00","0.00"
"07:19:56","23.1","19.9","87.2","30.56","204","0","0","0.00","0.00"
"07:24:58","23.2","20.1","87.8","30.56","204","0","0","0.00","0.00"
"07:29:55","23.3","20","87","30.56","204","0","0","0.00","0.00"
"07:34:56","23.4","20.1","87","30.56","204","0","0","0.00","0.00"
"07:39:59","23.5","20.2","87","30.56","204","0","0","0.00","0.00"
"07:44:57","23.6","20.3","87","30.56","204","0","0","0.00","0.00"
"07:49:58","23.7","20.4","87","30.56","204","0","0","0.00","0.00"
"07:54:57","23.8","20.5","87","30.56","204","0","0","0.00","0.00"
"07:59:59","23.9","20.6","87","30.56","204","0","0","0.00","0.00"
"08:04:56","24","20.7","87","30.56","204","0","0","0.00","0.00"
"08:09:56","24.2","20.9","87","30.56","204","0","0","0.00","0.00"
"08:14:59","24.7","21.4","87","30.56","204","0","0","0.00","0.00"
"08:19:59","25.2","21.8","86.7","30.56","204","0","0","0.00","0.00"
"08:24:57","25.8","22.2","86.2","30.56","204","0","0","0.00","0.00"
"08:29:58","27.2","23.4","85.1","30.56","204","0","0","0.00","0.00"
"08:34:59","29","24.1","81.8","30.56","204","0","0","0.00","0.00"
"08:39:57","29.7","24.2","79.7","30.56","204","0","0","0.00","0.00"
"08:44:58","30.7","24.2","76.7","30.56","204","0","0","0.00","0.00"
"08:49:59","32.3","25","74.3","30.56","204","0","0","0.00","0.00"
"08:54:56","33.3","24.7","70.4","30.56","204","0","0","0.00","0.00"
"08:59:57","34.3","25.2","69","30.56","204","0","0","0.00","0.00"
"09:04:58","34.7","25.1","67.6","30.56","204","0","0","0.00","0.00"
"09:09:58","35.8","25.4","65.8","30.56","204","0","0","0.00","0.00"
"09:14:56","36.8","26.2","65.1","30.57","204","0","0","0.00","0.00"
"09:19:58","37.8","27.1","65","30.57","204","0","0","0.00","0.00"
"09:24:56","38.8","27.5","63.4","30.57","204","0","0","0.00","0.00"
"09:29:57","39.9","28.3","62.9","30.57","204","0","0","0.00","0.00"
"09:34:59","40.4","27.8","60.5","30.56","204","0.3","2.4","0.00","0.00"
"09:39:58","40.7","28","60.4","30.56","204","0","1.2","0.00","0.00"
"09:44:56","41.1","29.2","62.4","30.56","204","0.3","2.4","0.00","0.00"
"09:49:57","42.1","29.7","61.1","30.56","204","0","1.2","0.00","0.00"
"09:54:59","42.1","29.7","61.2","30.56","204","1.3","2.4","0.00","0.00"
"09:59:56","42.7","30","60.5","30.56","204","1.1","2.4","0.00","0.00"
"10:04:57","43.1","30.3","60.5","30.56","203","0.8","2.4","0.00","0.00"
"10:09:57","44.2","30.6","58.7","30.56","203","0.3","2.4","0.00","0.00"
"10:14:56","44.7","30.7","57.8","30.56","203","0.4","2.4","0.00","0.00"
"10:19:57","45.6","30.5","55.3","30.56","203","0.3","2.4","0.00","0.00"
"10:24:59","45.9","29.5","52.4","30.56","200","0.2","2.3","0.00","0.00"
"10:29:56","46.8","30","51.9","30.56","199","1","2.4","0.00","0.00"
"10:34:58","48.2","30.6","50.3","30.55","199","0.1","1.2","0.00","0.00"
"10:39:56","48.9","30.8","49.5","30.55","198","0.5","2.4","0.00","0.00"
"10:44:58","49.7","31.1","48.7","30.55","199","0","0","0.00","0.00"
"10:49:59","50.4","31.6","48.3","30.55","199","0","0","0.00","0.00"
"10:54:56","51.5","32.6","48.4","30.55","198","0","0","0.00","0.00"
"10:59:57","52.7","33.1","47.1","30.55","201","0.3","3.6","0.00","0.00"
"11:04:56","54","33.6","46","30.55","202","0.8","3.5","0.00","0.00"
"11:09:59","55.3","33.1","43","30.55","231","1.1","3.6","0.00","0.00"
"11:14:58","55.9","31.3","39.1","30.55","303","2.7","8.4","0.00","0.00"
"11:19:56","55.8","31.1","38.8","30.53","279","4.7","13.2","0.00","0.00"
"11:24:57","55.9","30.7","38","30.53","275","4.4","10.8","0.00","0.00"
"11:29:58","56.5","31","37.8","30.53","250","4.4","10.8","0.00","0.00"
"11:34:56","56.8","30.4","36.4","30.53","299","4.4","10.8","0.00","0.00"
"11:39:58","56.9","30.5","36.5","30.53","316","4.9","18","0.00","0.00"
"11:44:56","56.1","29.9","36.6","30.53","282","4.7","16.1","0.00","0.00"
"11:49:57","56.6","30.1","36.2","30.52","280","4.2","12","0.00","0.00"
"11:54:59","57","30.1","35.8","30.52","299","4.7","13.2","0.00","0.00"
"11:59:56","56.9","29.6","35.1","30.52","270","5.1","16.1","0.00","0.00"
"12:04:57","57.5","30.7","36.1","30.50","253","4.9","12","0.00","0.00"
"12:09:56","57.8","30.3","35","30.50","336","6.2","15.6","0.00","0.00"
"12:14:59","57.7","30.2","35","30.50","310","6.8","20.4","0.00","0.00"
"12:19:59","57.2","29.7","34.9","30.50","290","6.4","19.6","0.00","0.00"
"12:24:56","57.3","29.7","34.8","30.50","290","5.6","13.2","0.00","0.00"
"12:29:58","57.6","30.2","35.2","30.50","283","4.8","13.2","0.00","0.00"
"12:34:55","58.3","31.3","35.8","30.50","309","4.4","11.5","0.00","0.00"
"12:39:58","58.2","30.3","34.6","30.50","304","4.4","10.8","0.00","0.00"
"12:44:56","58.4","31.3","35.8","30.50","279","5","12","0.00","0.00"
"12:49:57","58.5","31.2","35.3","30.49","295","3.8","7.2","0.00","0.00"
"12:54:59","58.3","30.8","35","30.49","304","3.5","9.6","0.00","0.00"
"12:59:57","58.8","31.2","35","30.49","304","4.3","13.2","0.00","0.00"
"13:04:59","58.8","31","34.8","30.48","299","4.7","12","0.00","0.00"
"13:09:58","58","30.6","35.1","30.48","270","4.8","15","0.00","0.00"
"13:14:58","58","30.6","35.1","30.48","268","5.7","12","0.00","0.00"
"13:19:59","58.2","30.7","35.1","30.48","269","4.3","8.4","0.00","0.00"
"13:24:56","59.1","31.7","35.4","30.48","270","2.9","7.2","0.00","0.00"
"13:29:56","59.7","32.1","35.1","30.48","233","4.6","8.4","0.00","0.00"
"13:34:59","59.9","31.8","34.5","30.47","244","3.1","7.2","0.00","0.00"
"13:39:58","60.1","31.5","34","30.47","274","3.2","6","0.00","0.00"
"13:44:56","59.7","31.1","33.8","30.47","288","3.7","13.2","0.00","0.00"
"13:49:58","59.9","31.5","34","30.47","300","3.1","8.4","0.00","0.00"
"13:54:57","60.1","30.2","32.1","30.47","286","4.9","13.2","0.00","0.00"
"13:59:59","60.6","31.4","33.2","30.47","263","3.3","8.4","0.00","0.00"
"14:04:56","60.6","31.4","33.1","30.46","298","3.2","6.9","0.00","0.00"
"14:09:59","60.7","31.5","33.1","30.46","244","4","7.2","0.00","0.00"
"14:14:55","61.2","31.4","32.4","30.46","268","2.8","7.2","0.00","0.00"
"14:19:57","61.1","30.8","31.7","30.45","274","3.3","7.2","0.00","0.00"
"14:24:56","60.2","29.5","31.2","30.45","317","4.8","10.8","0.00","0.00"
"14:29:58","60.3","30.5","32.2","30.45","337","4.2","12","0.00","0.00"
"14:34:56","60.6","30","31.2","30.45","333","4.9","13.2","0.00","0.00"
"14:39:59","60.5","29.7","31","30.45","322","5.3","12","0.00","0.00"
"14:44:58","59.9","29.8","31.7","30.45","289","3.6","8.4","0.00","0.00"
"14:49:59","60.4","30","31.5","30.45","256","4.2","8.4","0.00","0.00"
"14:54:57","60.4","29.5","30.9","30.45","325","5.1","12","0.00","0.00"
"14:59:59","60","29","30.7","30.45","310","5","13.2","0.00","0.00"
"15:04:57","60","28.9","30.6","30.45","326","4.5","12","0.00","0.00"
"15:09:56","60.3","29.8","31.5","30.45","319","2.6","7.2","0.00","0.00"
"15:14:56","60.5","29.8","31.2","30.45","327","2.7","6","0.00","0.00"
"15:19:58","60.5","29.7","31","30.45","298","1.9","4.8","0.00","0.00"
"15:24:56","60.3","28.9","30.3","30.45","282","2.2","6","0.00","0.00"
"15:29:58","60.1","29.1","30.7","30.45","317","3.2","12","0.00","0.00"
"15:34:57","59.8","29.3","31.2","30.45","300","1.9","8.1","0.00","0.00"
"15:39:56","59.5","29.3","31.6","30.45","325","1.7","4.8","0.00","0.00"
"15:44:59","59.1","29.5","32.3","30.45","309","1.2","3.6","0.00","0.00"
"15:49:57","59","29","31.9","30.44","341","1.9","4.8","0.00","0.00"
"15:54:59","58.9","28.9","31.8","30.44","338","2.1","6","0.00","0.00"
"15:59:57","58.9","28.8","31.6","30.44","347","1.3","4.8","0.00","0.00"
"16:04:59","58.8","28.4","31.3","30.44","339","2.6","6","0.00","0.00"
"16:09:58","58.6","28.7","31.8","30.44","323","0.6","4.8","0.00","0.00"
"16:14:59","58.7","28.8","31.8","30.44","281","0.1","1.2","0.00","0.00"
"16:19:57","58.6","28.5","31.5","30.44","316","1.9","6","0.00","0.00"
"16:24:56","58.2","28.1","31.5","30.44","319","0.8","3.6","0.00","0.00"
"16:29:59","57.6","28.4","32.6","30.44","319","0.4","2.4","0.00","0.00"
"16:34:58","56.9","29.1","34.4","30.44","319","0","2.3","0.00","0.00"
"16:39:58","56.1","28.7","34.8","30.44","319","0.4","3.6","0.00","0.00"
"16:44:58","55.4","28.4","35.3","30.44","319","0","0","0.00","0.00"
"16:49:57","54.6","28.5","36.6","30.44","319","0","0","0.00","0.00"
"16:54:56","53.6","29.3","39","30.44","319","0","0","0.00","0.00"
"16:59:59","52.6","29","40.1","30.44","319","0","0","0.00","0.00"
"17:04:57","51.6","28.8","41.2","30.44","319","0","0","0.00","0.00"
"17:09:57","50.8","28.8","42.5","30.44","319","0","0","0.00","0.00"
"17:14:58","50","28.7","43.7","30.44","319","0","0","0.00","0.00"
"17:19:56","49.3","28.6","44.5","30.44","319","0","0","0.00","0.00"
"17:24:56","48.6","29","46.4","30.44","319","0","0","0.00","0.00"
"17:29:59","47.8","29","47.9","30.44","319","0","0","0.00","0.00"
"17:34:58","47","29","49.4","30.44","319","0","0","0.00","0.00"
"17:39:58","46.3","28.9","50.6","30.44","319","0.1","1.2","0.00","0.00"
"17:44:58","45.6","29.1","52.1","30.44","319","0","0","0.00","0.00"
"17:49:56","45","28.9","53.1","30.44","319","0","0","0.00","0.00"
"17:54:56","44.4","28.9","54.3","30.44","319","0","0","0.00","0.00"
"17:59:59","43.9","28.8","55","30.44","319","0.1","2.4","0.00","0.00"
"18:04:57","43.5","28.5","55.1","30.44","319","0.1","2.3","0.00","0.00"
"18:09:57","43.2","28.5","55.9","30.44","319","0","0","0.00","0.00"
"18:14:58","42.7","28.6","57.2","30.45","319","0","0","0.00","0.00"
"18:19:57","42","28.8","59.2","30.45","319","0","0","0.00","0.00"
"18:24:56","41.4","28.6","60.3","30.45","319","0","0","0.00","0.00"
"18:29:58","40.9","28.5","61.1","30.45","319","0","0","0.00","0.00"
"18:34:59","40.5","28.6","62.1","30.45","319","0","0","0.00","0.00"
"18:39:59","40.2","28.7","63.1","30.45","319","0","0","0.00","0.00"
"18:44:59","39.9","28.7","64","30.45","319","0","0","0.00","0.00"
"18:49:57","39.6","28.5","64.4","30.45","319","0","0","0.00","0.00"
"18:54:57","39.2","28.5","65.3","30.45","319","0.1","2.4","0.00","0.00"
"18:59:59","38.9","28.2","65.3","30.46","319","0.7","4.8","0.00","0.00"
"19:04:57","38.8","28.1","65.3","30.46","319","0.6","4.6","0.00","0.00"
"19:09:58","38.8","28","65.1","30.46","319","0.6","3.6","0.00","0.00"
"19:14:59","38.8","28","65","30.46","319","0.8","4.8","0.00","0.00"
"19:19:57","38.7","27.9","65","30.46","320","2","4.6","0.00","0.00"
"19:24:57","38.9","27.9","64.4","30.46","320","1.1","3.6","0.00","0.00"
"19:29:59","39","27.9","64.2","30.46","235","0.6","4.8","0.00","0.00"
"19:34:58","38.2","27.8","66","30.46","231","0.3","4.6","0.00","0.00"
"19:39:58","37.7","27.9","67.5","30.46","318","0.8","4.8","0.00","0.00"
"19:44:58","37.5","27.9","68","30.46","333","0.5","2.4","0.00","0.00"
"19:49:57","37.4","27.8","68","30.45","333","0.2","2.4","0.00","0.00"
"19:54:56","37.2","27.7","68.1","30.45","334","0","1.2","0.00","0.00"
"19:59:59","37","27.8","69","30.46","334","0.3","2.4","0.00","0.00"
"20:04:57","36.7","27.6","69.3","30.46","334","0.1","1.2","0.00","0.00"
"20:09:57","36.4","27.5","70","30.46","334","0.3","2.4","0.00","0.00"
"20:14:58","36.2","27.6","70.8","30.46","334","0","1.2","0.00","0.00"
"20:19:57","36","27.5","71","30.45","334","0","0","0.00","0.00"
"20:24:57","35.8","27.3","71","30.45","334","0","0","0.00","0.00"
"20:29:55","35.5","27.3","71.6","30.46","334","0","0","0.00","0.00"
"20:34:59","35.3","27.3","72.4","30.46","334","0.7","3.6","0.00","0.00"
"20:39:58","35.6","27.6","72.3","30.46","334","2.3","3.6","0.00","0.00"
"20:44:58","35.8","27.6","71.8","30.46","334","1.2","2.4","0.00","0.00"
"20:49:58","35.9","27.4","71","30.45","334","0.2","1.2","0.00","0.00"
"20:54:57","35.7","27.4","71.5","30.45","334","1","2.4","0.00","0.00"
"20:59:56","35.4","27.3","72","30.45","334","0","1.2","0.00","0.00"
"21:04:59","35.1","27","72","30.45","334","0","0","0.00","0.00"
"21:09:59","34.9","27","72.5","30.45","334","0","1.2","0.00","0.00"
"21:14:59","34.7","26.9","73","30.45","334","0","0","0.00","0.00"
"21:19:58","34.4","26.6","73.2","30.45","334","0","0","0.00","0.00"
"21:24:57","34","26.6","74.1","30.45","334","0.7","2.4","0.00","0.00"
"21:29:56","34.1","26.7","74.1","30.45","334","0","1.2","0.00","0.00"
"21:34:59","34.1","26.7","74","30.45","334","0","0","0.00","0.00"
"21:39:56","34.1","26.7","74","30.45","334","0.4","2.4","0.00","0.00"
"21:44:56","34.1","26.7","74","30.45","334","0.2","2.3","0.00","0.00"
"21:49:58","34","26.6","74","30.45","334","0","0","0.00","0.00"
"21:54:58","33.7","26.3","74","30.45","334","0","0","0.00","0.00"
"21:59:57","33.5","26.4","75","30.46","334","0","0","0.00","0.00"
"22:04:56","33.3","26.3","75.3","30.46","334","0","0","0.00","0.00"
"22:09:56","33.1","26.4","76","30.46","334","0","0","0.00","0.00"
"22:14:57","32.9","26.2","76","30.46","334","0","0","0.00","0.00"
"22:19:56","32.8","26.1","76","30.46","334","0","0","0.00","0.00"
"22:24:59","32.7","26.1","76.2","30.46","334","0","0","0.00","0.00"
"22:29:58","32.6","26.2","77","30.46","334","0","0","0.00","0.00"
"22:34:57","32.6","26.2","77","30.46","334","0","0","0.00","0.00"
"22:39:57","32.5","26.1","77","30.46","334","0","0","0.00","0.00"
"22:44:57","32.3","25.9","77","30.47","334","0","0","0.00","0.00"
"22:49:56","32.4","26","77","30.47","334","0","0","0.00","0.00"
"22:54:59","32.4","26","77","30.47","334","0","0","0.00","0.00"
"22:59:58","32.2","26","77.5","30.47","334","0","0","0.00","0.00"
"23:04:56","32.1","26","78","30.47","334","0","0","0.00","0.00"
"23:09:56","31.9","25.7","77.7","30.47","334","0","0","0.00","0.00"
"23:14:57","31.5","25.5","78.4","30.47","334","0","0","0.00","0.00"
"23:19:57","31.3","25.5","79","30.46","334","0","0","0.00","0.00"
"23:24:56","31.3","25.5","79","30.46","334","0","0","0.00","0.00"
"23:29:59","31.3","25.7","79.5","30.46","334","0","0","0.00","0.00"
"23:34:59","31.7","25.9","79","30.46","334","0","0","0.00","0.00"
"23:39:59","31.6","25.6","78.5","30.46","334","0","0","0.00","0.00"
"23:44:58","31.4","25.6","79","30.46","334","0","0","0.00","0.00"
"23:49:57","31.2","25.4","79.1","30.45","334","0","0","0.00","0.00"
"23:54:57","31.3","25.8","80","30.45","334","0","0","0.00","0.00"
